Location: Wien
(48.2082°N, 16.3738°E)
Time: 20:33:24
(UTC+02:00)

DOVE 4 - Pass Details

Date: 29 March 2019
Orbit: 587 x 804 km, 97.7° (Epoch: 21 April)

Event Time Altitude Azimuth Distance (km) Brightness Sun altitude
Rises 02:05:33 0° 28° (NNE) 2,890 ? -31.7°
Reaches altitude 10° 02:08:29 10° 49° (NE) 1,953 ? -31.4°
Maximum altitude 02:11:13 17° 90° (E) 1,541 ? -31.1°
Enters shadow 02:11:28 17° 94° (E) 1,543 ? -31.1°
